Location: Ch�tillon
(48.8024°N, 2.2935°E)
Time: 08:13:54
(UTC+00:00)

CSL-04 Debris - Pass Details

Date: 16 October 2021
Orbit: 827 x 847 km, 98.9° (Epoch: 02 December)

Event Time Altitude Azimuth Distance (km) Brightness Sun altitude
Exits shadow 19:08:40 18° 166° (SSE) 1,951 5.8 -22.0°
Maximum altitude 19:12:49 84° 254° (WSW) 840 4.1 -22.7°
Drops below altitude 10° 19:18:16 10° 344° (NNW) 2,450 7.0 -23.6°
Sets 19:20:38 0° 345° (NNW) 3,391 7.7 -24.0°
